Hourly Data Report for September 26, 2017

All times are specified in Local Standard Time (LST). Add 1 hour to adjust for Daylight Saving Time where and when it is observed.

ST. STEPHEN
NEW BRUNSWICK

45°12'36.600" N
67°15'10.300" W
26.10 m
8104935
71607
WSS

Download Data

Hourly Data (September 2017)
Hourly Data Report for September 26, 2017
Temp Definition
°C
Dew Point Temp Definition
°C
Rel Hum Definition
%
Wind Dir Definition
10's deg

Wind Spd Definition
km/h
Visibility Definition
km
Stn Press Definition
kPa
Hmdx Definition


Wind Chill Definition


Weather Definition


TIME
00:00 14.2 13.5 95 11 2   101.30     LegendNANA
01:00 14.1 13.5 96 11 1   101.28     LegendNANA
02:00 13.3 12.7 96 12 4   101.26     LegendNANA
03:00 13.5 13.0 97   0   101.27     LegendNANA
04:00 13.2 12.6 97   0   101.25     LegendNANA
05:00 12.8 12.3 97   0   101.28     LegendNANA
06:00 12.4 11.9 96 5 1   101.26     LegendNANA
07:00 12.6 12.0 97 9 2   101.31     LegendNANA
08:00 15.7 15.2 97 0 1   101.29     LegendNANA
09:00 19.1 16.7 86 0 1   101.28     LegendNANA
10:00 23.2 17.7 71 20 2   101.25 29   LegendNANA
11:00 26.6 19.0 63 19 8   101.23 33   LegendNANA
12:00 28.6 19.3 57 24 13   101.16 36   LegendNANA
13:00 30.9 20.0 52 20 8   101.08 38   LegendNANA
14:00 31.7 18.6 46 25 12   101.05 38   LegendNANA
15:00 31.7 18.0 44 23 11   101.02 38   LegendNANA
16:00 32.7 15.8 36 26 9   100.98 37   LegendNANA
17:00 30.8 18.6 48 20 9   100.99 37   LegendNANA
18:00 27.8 19.5 61 19 9   101.02 35   LegendNANA
19:00 25.4 19.5 70 18 5   101.05 33   LegendNANA
20:00 23.6 18.6 74 21 5   101.09 30   LegendNANA
21:00 22.2 18.2 78 19 3   101.08 28   LegendNANA
22:00 20.7 17.8 84 22 1   101.08 27   LegendNANA
23:00 20.8 17.8 83 6 7   101.14 27   LegendNANA

Notes on Data Quality.

Legend

  • E = Estimated
  • M = Missing
  • NA = Not Available
  • ‡ = Partner data that is not subject to review by the National Climate Archives
Date modified: